Hurlburt Field, FL

6:59 PM CDT on September 19, 2017 (GMT -0500)
Hurlburt

Weather History for KHRT - February, 2014

Change the Weather History Date:

Tuesday, February 18, 2014

  Actual Average Record
Temperature  
Mean Temperature 62 °F -  
Max Temperature 71 °F 63 °F 71 °F (2000)
Min Temperature 53 °F 45 °F 29 °F (2015)
Degree Days  
Heating Degree Days 3    
Growing Degree Days 12 (Base 50)    
Moisture  
Dew Point 58 °F    
Average Humidity 79    
Maximum Humidity 88    
Minimum Humidity 68    
Precipitation  
Precipitation 0.00 in - - ()
Sea Level Pressure  
Sea Level Pressure 30.15 in    
Wind  
Wind Speed 6 mph (South)    
Max Wind Speed 13 mph    
Max Gust Speed -    
Visibility 8 miles    
Events Fog , Rain    
Averages and records for this station are not official NWS values.
T = Trace of Precipitation, MM = Missing Value Source: NWS Daily Summary

Daily Weather History Graph

Daily Weather History Graph

Search for Another Location

Airport or City:

Trip Planner

Search our weather history database for the weather conditions in past years. The results will help you decide how hot, cold, wet, or windy it might be!

Date:

Astronomy

Feb. 18, 2014 Rise Set
Actual Time 6:24 AM CST 5:37 PM CST
Civil Twilight 5:59 AM CST 6:01 PM CST
Nautical Twilight 5:31 AM CST 6:30 PM CST
Astronomical Twilight 5:03 AM CST 6:57 PM CST
Moon 9:10 PM CST (2/18) 8:13 AM CST (2/18)
Length of Visible Light 12h 02m
Length of Day
11h 13m
Waning Gibbous, 87% of the Moon is Illuminated
Feb 18
Waning Gibbous
Feb 22
Last Quarter
Mar 1
New
Mar 8
First Quarter
Mar 16
Full

Hourly Weather History & Observations

Time (CST) Temp. Dew Point Humidity Pressure Visibility Wind Dir Wind Speed Gust Speed Precip Events Conditions
12:58 AM 61.0 °F 56.5 °F 85% 30.16 in 10.0 mi SSW 5.8 mph - N/A   Clear
1:58 AM 60.8 °F 56.3 °F 85% 30.15 in 10.0 mi SW 4.6 mph - N/A   Clear
2:58 AM 61.0 °F 56.7 °F 86% 30.14 in 10.0 mi SW 3.5 mph - N/A   Clear
3:23 AM 60.8 °F 57.2 °F 88% 30.13 in 6.0 mi SW 1.2 mph - N/A   Haze
3:28 AM 60.8 °F 57.2 °F 88% 30.13 in 3.0 mi SSW 2.3 mph - N/A   Haze
3:33 AM 60.8 °F 57.2 °F 88% 30.13 in 1.2 mi SSW 2.3 mph - N/A   Haze
3:38 AM 60.8 °F 57.2 °F 88% 30.13 in 0.5 mi SW 1.2 mph - N/A   Haze
3:43 AM 60.8 °F 57.2 °F 88% 30.13 in 0.2 mi SSW 1.2 mph - N/A   Haze
3:48 AM 60.8 °F 57.2 °F 88% 30.13 in 4.0 mi SSW 2.3 mph - N/A   Scattered Clouds
3:53 AM 60.8 °F 55.4 °F 82% 30.13 in 4.0 mi SSW 3.5 mph - N/A   Scattered Clouds
3:59 AM 60.8 °F 55.4 °F 82% 30.14 in 3.0 mi SSW 3.5 mph - N/A   Mostly Cloudy
4:04 AM 60.8 °F 55.4 °F 82% 30.13 in 4.0 mi SSW 2.3 mph - N/A   Scattered Clouds
4:09 AM 60.8 °F 55.4 °F 82% 30.13 in 0.8 mi WSW 1.2 mph - N/A   Haze
4:19 AM 60.8 °F 57.2 °F 88% 30.13 in 4.0 mi North 2.3 mph - N/A   Clear
4:33 AM 59.0 °F 55.4 °F 88% 30.14 in 0.5 mi North 2.3 mph - N/A Fog Fog
4:37 AM 59.0 °F 53.6 °F 82% 30.14 in 0.2 mi North 3.5 mph - N/A Fog Fog
4:49 AM 55.4 °F 51.8 °F 88% 30.14 in 0.5 mi North 3.5 mph - N/A   Light Drizzle
4:58 AM 54.5 °F 50.4 °F 86% 30.15 in 0.5 mi North 3.5 mph - 0.00 in Fog Fog
5:09 AM 53.6 °F 50.0 °F 88% 30.15 in 0.2 mi North 2.3 mph - N/A Fog Fog
5:48 AM 55.4 °F 51.8 °F 88% 30.15 in 1.0 mi Calm Calm - N/A   Overcast
5:58 AM 57.2 °F 51.8 °F 82% 30.17 in 3.0 mi Calm Calm - 0.00 in   Overcast
6:13 AM 57.2 °F 53.6 °F 88% 30.16 in 10.0 mi SSE 2.3 mph - N/A   Overcast
6:30 AM 57.2 °F 53.6 °F 88% 30.17 in 10.0 mi Calm Calm - N/A   Overcast
6:45 AM 59.0 °F 55.4 °F 88% 30.17 in 10.0 mi South 1.2 mph - N/A   Overcast
6:54 AM 59.0 °F 55.4 °F 88% 30.17 in 10.0 mi Calm Calm - N/A Rain Light Rain
6:58 AM 59.0 °F 55.4 °F 88% 30.18 in 10.0 mi South 1.2 mph - N/A   Overcast
6:59 AM 59.0 °F 55.4 °F 88% 30.17 in 10.0 mi Calm Calm - N/A   Light Drizzle
7:56 AM 62.6 °F 59.0 °F 88% 30.20 in 10.0 mi South 2.3 mph - N/A   Overcast
8:37 AM 62.6 °F 59.0 °F 88% 30.19 in 10.0 mi South 3.5 mph - N/A   Mostly Cloudy
8:57 AM 64.4 °F 60.8 °F 88% 30.20 in 10.0 mi South 4.6 mph - N/A   Mostly Cloudy
9:23 AM 68.0 °F 62.6 °F 83% 30.20 in 10.0 mi SSW 8.1 mph - N/A   Light Drizzle
9:58 AM 68.9 °F 60.4 °F 74% 30.21 in 10.0 mi South 10.4 mph - 0.00 in   Light Drizzle
10:02 AM 68.0 °F 59.0 °F 73% 30.20 in 10.0 mi SSW 8.1 mph - N/A   Mostly Cloudy
10:04 AM 68.0 °F 59.0 °F 73% 30.20 in 10.0 mi SSW 9.2 mph - N/A   Light Drizzle
10:06 AM 69.8 °F 59.0 °F 68% 30.20 in 10.0 mi South 10.4 mph - N/A   Mostly Cloudy
10:10 AM 69.8 °F 60.8 °F 73% 30.20 in 10.0 mi SSW 9.2 mph - N/A   Light Drizzle
10:58 AM 71.4 °F 61.7 °F 71% 30.21 in 10.0 mi SW 10.4 mph - 0.00 in   Light Drizzle
11:23 AM 71.6 °F 62.6 °F 73% 30.19 in 10.0 mi SW 10.4 mph - N/A   Partly Cloudy
11:24 AM 71.6 °F 62.6 °F 73% 30.19 in 10.0 mi SSW 9.2 mph - N/A   Light Drizzle
11:39 AM 71.6 °F 62.6 °F 73% 30.18 in 10.0 mi South 12.7 mph - N/A   Light Drizzle
11:44 AM 71.6 °F 62.6 °F 73% 30.18 in 10.0 mi South 10.4 mph - N/A   Light Drizzle
11:58 AM 71.1 °F 61.5 °F 72% 30.19 in 10.0 mi South 10.4 mph - 0.00 in   Light Drizzle
12:06 PM 71.6 °F 60.8 °F 69% 30.18 in 10.0 mi South 10.4 mph - N/A   Scattered Clouds
12:11 PM 71.6 °F 62.6 °F 73% 30.18 in 10.0 mi South 12.7 mph - N/A   Light Drizzle
12:39 PM 69.8 °F 60.8 °F 73% 30.16 in 10.0 mi South 10.4 mph - N/A   Partly Cloudy
12:41 PM 71.6 °F 60.8 °F 69% 30.16 in 10.0 mi South 9.2 mph - N/A   Light Drizzle
12:58 PM 71.2 °F 61.5 °F 71% 30.16 in 10.0 mi South 10.4 mph - 0.00 in   Light Drizzle
1:23 PM 69.8 °F 60.8 °F 73% 30.15 in 10.0 mi SSW 12.7 mph - N/A   Mostly Cloudy
1:25 PM 69.8 °F 60.8 °F 73% 30.15 in 10.0 mi South 10.4 mph - N/A   Light Drizzle
1:58 PM 70.3 °F 61.5 °F 74% 30.15 in 10.0 mi South 10.4 mph - 0.00 in   Light Drizzle
2:08 PM 69.8 °F 60.8 °F 73% 30.14 in 10.0 mi South 10.4 mph - N/A   Light Drizzle
2:12 PM 69.8 °F 60.8 °F 73% 30.14 in 10.0 mi South 10.4 mph - N/A   Overcast
2:29 PM 69.8 °F 60.8 °F 73% 30.14 in 10.0 mi South 9.2 mph - N/A   Light Drizzle
2:39 PM 68.0 °F 60.8 °F 78% 30.14 in 10.0 mi South 10.4 mph - N/A   Overcast
2:43 PM 68.0 °F 60.8 °F 78% 30.14 in 10.0 mi South 10.4 mph - N/A   Light Drizzle
2:55 PM 68.0 °F 60.8 °F 78% 30.14 in 10.0 mi South 10.4 mph - N/A   Light Drizzle
2:58 PM 68.0 °F 60.8 °F 78% 30.15 in 10.0 mi South 12.7 mph - 0.00 in   Light Drizzle
3:08 PM 69.8 °F 60.8 °F 73% 30.13 in 10.0 mi South 10.4 mph - N/A   Light Drizzle
3:23 PM 69.8 °F 60.8 °F 73% 30.13 in 10.0 mi South 11.5 mph - N/A   Light Drizzle
3:47 PM 68.0 °F 59.0 °F 73% 30.13 in 10.0 mi South 8.1 mph - N/A   Clear
3:58 PM 68.0 °F 60.8 °F 78% 30.14 in 10.0 mi South 8.1 mph - 0.00 in   Light Drizzle
4:04 PM 68.0 °F 59.0 °F 73% 30.12 in 10.0 mi South 8.1 mph - N/A   Overcast
4:19 PM 66.2 °F 59.0 °F 78% 30.13 in 10.0 mi South 8.1 mph - N/A   Light Drizzle
4:47 PM 66.2 °F 57.2 °F 73% 30.13 in 10.0 mi South 8.1 mph - N/A   Light Drizzle
4:49 PM 66.2 °F 57.2 °F 73% 30.13 in 10.0 mi South 8.1 mph - N/A   Partly Cloudy
4:51 PM 66.2 °F 57.2 °F 73% 30.13 in 10.0 mi SSE 8.1 mph - N/A   Light Drizzle
4:58 PM 65.7 °F 57.4 °F 75% 30.14 in 10.0 mi SSE 8.1 mph - 0.00 in   Light Drizzle
5:01 PM 64.4 °F 57.2 °F 77% 30.13 in 10.0 mi South 6.9 mph - N/A   Scattered Clouds
5:03 PM 64.4 °F 57.2 °F 77% 30.13 in 10.0 mi SSE 6.9 mph - N/A   Light Drizzle
5:13 PM 64.4 °F 57.2 °F 77% 30.13 in 10.0 mi SSE 9.2 mph - N/A   Scattered Clouds
5:14 PM 64.4 °F 57.2 °F 77% 30.13 in 10.0 mi SSE 9.2 mph - N/A   Light Drizzle
5:15 PM 64.4 °F 57.2 °F 77% 30.13 in 10.0 mi South 9.2 mph - N/A   Scattered Clouds
5:23 PM 64.4 °F 57.2 °F 77% 30.13 in 10.0 mi South 8.1 mph - N/A   Light Drizzle
5:24 PM 64.4 °F 57.2 °F 77% 30.13 in 10.0 mi South 8.1 mph - N/A   Mostly Cloudy
5:26 PM 64.4 °F 57.2 °F 77% 30.12 in 10.0 mi South 6.9 mph - N/A   Light Drizzle
5:31 PM 64.4 °F 57.2 °F 77% 30.12 in 10.0 mi South 6.9 mph - N/A   Light Drizzle
5:38 PM 64.4 °F 57.2 °F 77% 30.13 in 10.0 mi South 8.1 mph - N/A   Mostly Cloudy
5:43 PM 64.4 °F 57.2 °F 77% 30.13 in 10.0 mi South 5.8 mph - N/A   Mostly Cloudy
5:48 PM 64.4 °F 57.2 °F 77% 30.13 in 10.0 mi South 6.9 mph - N/A   Light Drizzle
5:58 PM 63.7 °F 57.6 °F 80% 30.14 in 10.0 mi South 8.1 mph - 0.00 in   Light Drizzle
6:03 PM 64.4 °F 57.2 °F 77% 30.13 in 10.0 mi South 8.1 mph - N/A   Light Drizzle
6:06 PM 64.4 °F 57.2 °F 77% 30.13 in 10.0 mi South 8.1 mph - N/A   Mostly Cloudy
6:10 PM 64.4 °F 57.2 °F 77% 30.13 in 10.0 mi SSE 8.1 mph - N/A   Light Drizzle
6:43 PM 62.6 °F 57.2 °F 82% 30.13 in 10.0 mi South 6.9 mph - N/A   Overcast
6:48 PM 62.6 °F 57.2 °F 82% 30.13 in 10.0 mi South 8.1 mph - N/A   Mostly Cloudy
6:58 PM 62.6 °F 56.8 °F 81% 30.14 in 10.0 mi SSE 8.1 mph - 0.00 in   Mostly Cloudy
7:18 PM 62.6 °F 57.2 °F 82% 30.13 in 10.0 mi South 8.1 mph - N/A   Scattered Clouds
7:58 PM 63.1 °F 56.8 °F 80% 30.14 in 10.0 mi South 8.1 mph - N/A   Mostly Cloudy
8:48 PM 60.8 °F 55.4 °F 82% 30.14 in 10.0 mi South 6.9 mph - N/A Rain Light Rain
8:58 PM 60.6 °F 54.9 °F 81% 30.15 in 10.0 mi South 5.8 mph - 0.00 in Rain Light Rain
8:59 PM 60.8 °F 55.4 °F 82% 30.14 in 10.0 mi South 5.8 mph - N/A   Partly Cloudy
9:58 PM 60.3 °F 55.2 °F 83% 30.14 in 10.0 mi South 8.1 mph - 0.00 in   Mostly Cloudy
10:58 PM 61.9 °F 56.8 °F 84% 30.11 in 10.0 mi South 10.4 mph - N/A   Mostly Cloudy
11:58 PM 60.8 °F 55.6 °F 83% 30.11 in 10.0 mi SSE 3.5 mph - N/A   Scattered Clouds